CZ-4B R/B (44531 NORAD) Tracking and Keplerian Element Data

This shows tracking and keplerian element data for the satellite.

Feedback or suggestion? Click here.




ElementValue
Catalog44531
NameCZ-4B R/B
Epoch Orbit414
Epoch Day282.90933214
Epoch Year2019
RAAN358.9723
Inclination98.6808
Eccentricity0.0202887
Argument of Perigee296.2283
Mean Anonmoly61.8204
Mean Motion14.90751759
Decay Rate5.48E-06
L11 44531U 19059D 19282.90933214 .00000548 00000-0 44236-4 0 9994
L22 44531 98.6808 358.9723 0202887 296.2283 61.8204 14.90751759 4142

Live tracking and technical data element details for CZ-4B R/B (NORAD 44531). CZ-4B R/B can be tracked NOW for your location showing map with azimuth and elevation plus other details from your city location.

Track the satellite on the map from your city or location and see movement details for azimuth, elevation, latitude, longitude, range, height, and movement on the map or in text.







IsCatalogInMostPopularTable: catalog: 44531, numindb: 8
Update: records affected: 1



GetName: 44531 CZ-4B R/B

Hit Count: updated at: Tue, 22 Oct 2019 23:55:19 GMT